Weather History for KFAM - March, 2013

Change the Weather History Date:

Tuesday, March 26, 2013

  Actual Average (KCGI) Record (KCGI)
Temperature  
Mean Temperature 34 °F 50 °F  
Max Temperature 41 °F 62 °F 82 °F (2007)
Min Temperature 26 °F 39 °F 20 °F (2014)
Degree Days  
Heating Degree Days 32 15  
Month to date heating degree days 489  
Since 1 July heating degree days 3986  
Cooling Degree Days 0 0  
Month to date cooling degree days 0  
Year to date cooling degree days 0  
Moisture  
Dew Point 22 °F    
Average Humidity 67    
Maximum Humidity 86    
Minimum Humidity 45    
Precipitation  
Precipitation 0.00 in 0.16 in 1.35 in (1994)
Month to date precipitation 3.62  
Year to date precipitation 10.50  
Sea Level Pressure  
Sea Level Pressure 30.29 in    
Wind  
Wind Speed 8 mph (NW)    
Max Wind Speed 13 mph    
Max Gust Speed 20 mph    
Visibility 10 miles    
Events      
T = Trace of Precipitation, MM = Missing Value Source: NWS Daily Summary

Daily Weather History Graph

Daily Weather History Graph

Search for Another Location

Airport or City:

Trip Planner

Search our weather history database for the weather conditions in past years. The results will help you decide how hot, cold, wet, or windy it might be!

Date:

Astronomy

Mar. 26, 2013 Rise Set
Actual Time 6:55 AM CDT 7:19 PM CDT
Civil Twilight 6:29 AM CDT 7:45 PM CDT
Nautical Twilight 5:58 AM CDT 8:16 PM CDT
Astronomical Twilight 5:27 AM CDT 8:48 PM CDT
Moon 6:56 PM CDT (3/26) 6:12 AM CDT (3/26)
Length of Visible Light 13h 16m
Length of Day
12h 23m
Waxing Gibbous, 99% of the Moon is Illuminated
Mar 26
Waxing Gibbous
Mar 27
Full
Apr 2
Last Quarter
Apr 10
New
Apr 18
First Quarter

Hourly Weather History & Observations

Time (CDT) Temp. Windchill Dew Point Humidity Pressure Visibility Wind Dir Wind Speed Gust Speed Precip Events Conditions
12:15 AM 28.4 °F 19.1 °F 23.0 °F 80% 30.20 in 10.0 mi West 10.4 mph - N/A   Scattered Clouds
12:35 AM 28.4 °F 19.7 °F 23.0 °F 80% 30.20 in 10.0 mi WNW 9.2 mph - N/A   Mostly Cloudy
12:55 AM 28.4 °F 20.4 °F 23.0 °F 80% 30.21 in 10.0 mi WNW 8.1 mph - N/A   Scattered Clouds
1:15 AM 28.4 °F 19.7 °F 23.0 °F 80% 30.21 in 10.0 mi WNW 9.2 mph - N/A   Clear
1:35 AM 28.4 °F 19.7 °F 23.0 °F 80% 30.21 in 10.0 mi WNW 9.2 mph - N/A   Clear
1:55 AM 28.4 °F 20.4 °F 24.8 °F 86% 30.21 in 10.0 mi WNW 8.1 mph - N/A   Partly Cloudy
2:15 AM 28.4 °F 19.1 °F 24.8 °F 86% 30.21 in 10.0 mi WNW 10.4 mph - N/A   Mostly Cloudy
2:35 AM 28.4 °F 20.4 °F 24.8 °F 86% 30.21 in 10.0 mi WNW 8.1 mph - N/A   Overcast
2:55 AM 28.4 °F 19.7 °F 24.8 °F 86% 30.20 in 10.0 mi WNW 9.2 mph - N/A   Overcast
3:15 AM 28.4 °F 20.4 °F 24.8 °F 86% 30.20 in 10.0 mi WNW 8.1 mph - N/A   Overcast
3:35 AM 28.4 °F 20.4 °F 24.8 °F 86% 30.20 in 10.0 mi WNW 8.1 mph - N/A   Overcast
3:55 AM 28.4 °F 19.7 °F 24.8 °F 86% 30.20 in 10.0 mi WNW 9.2 mph - N/A   Overcast
4:15 AM 28.4 °F 20.4 °F 24.8 °F 86% 30.20 in 10.0 mi WNW 8.1 mph - N/A   Overcast
4:35 AM 28.4 °F 20.4 °F 24.8 °F 86% 30.21 in 10.0 mi WNW 8.1 mph 17.3 mph N/A   Overcast
4:55 AM 28.4 °F 19.1 °F 23.0 °F 80% 30.21 in 10.0 mi NW 10.4 mph - N/A   Overcast
5:15 AM 28.4 °F 19.1 °F 23.0 °F 80% 30.22 in 10.0 mi NW 10.4 mph - N/A   Overcast
5:35 AM 28.4 °F 20.4 °F 23.0 °F 80% 30.22 in 10.0 mi WNW 8.1 mph - N/A   Overcast
5:55 AM 28.4 °F 21.2 °F 23.0 °F 80% 30.23 in 10.0 mi WNW 6.9 mph - N/A   Overcast
6:15 AM 28.4 °F 19.1 °F 23.0 °F 80% 30.24 in 10.0 mi NW 10.4 mph - N/A   Overcast
6:35 AM 28.4 °F 19.7 °F 23.0 °F 80% 30.24 in 10.0 mi NW 9.2 mph - N/A   Overcast
6:55 AM 28.4 °F 19.1 °F 23.0 °F 80% 30.25 in 10.0 mi WNW 10.4 mph - N/A   Overcast
7:15 AM 28.4 °F 21.2 °F 23.0 °F 80% 30.26 in 10.0 mi WNW 6.9 mph - N/A   Overcast
7:35 AM 28.4 °F 21.2 °F 23.0 °F 80% 30.27 in 10.0 mi WNW 6.9 mph - N/A   Overcast
7:55 AM 28.4 °F 22.2 °F 23.0 °F 80% 30.28 in 10.0 mi WNW 5.8 mph - N/A   Overcast
8:15 AM 28.4 °F 20.4 °F 23.0 °F 80% 30.28 in 10.0 mi WNW 8.1 mph - N/A   Overcast
8:35 AM 30.2 °F 22.6 °F 23.0 °F 75% 30.29 in 10.0 mi WNW 8.1 mph - N/A   Overcast
8:55 AM 30.2 °F 23.4 °F 23.0 °F 75% 30.30 in 10.0 mi NW 6.9 mph - N/A   Overcast
9:15 AM 30.2 °F 22.6 °F 23.0 °F 75% 30.31 in 10.0 mi WNW 8.1 mph - N/A   Overcast
9:35 AM 30.2 °F 23.4 °F 23.0 °F 75% 30.31 in 10.0 mi WNW 6.9 mph - N/A   Overcast
9:55 AM 30.2 °F 22.6 °F 23.0 °F 75% 30.32 in 10.0 mi West 8.1 mph - N/A   Overcast
10:15 AM 30.2 °F 22.6 °F 23.0 °F 75% 30.33 in 10.0 mi WNW 8.1 mph - N/A   Overcast
10:35 AM 32.0 °F 26.4 °F 24.8 °F 75% 30.33 in 10.0 mi WNW 5.8 mph - N/A   Overcast
10:55 AM 33.8 °F 26.4 °F 24.8 °F 70% 30.33 in 10.0 mi WNW 9.2 mph - N/A   Overcast
11:15 AM 35.6 °F 29.2 °F 24.8 °F 65% 30.33 in 10.0 mi WNW 8.1 mph 16.1 mph N/A   Mostly Cloudy
11:35 AM 35.6 °F 28.6 °F 21.2 °F 56% 30.34 in 10.0 mi NNW 9.2 mph 17.3 mph N/A   Mostly Cloudy
11:55 AM 37.4 °F 32.1 °F 24.8 °F 60% 30.34 in 10.0 mi WNW 6.9 mph - N/A   Overcast
12:15 PM 35.6 °F 28.0 °F 23.0 °F 60% 30.34 in 10.0 mi WNW 10.4 mph - N/A   Overcast
12:35 PM 37.4 °F 33.8 °F 21.2 °F 52% 30.34 in 10.0 mi NW 4.6 mph 16.1 mph N/A   Overcast
12:55 PM 37.4 °F 30.8 °F 24.8 °F 60% 30.33 in 10.0 mi West 9.2 mph - N/A   Overcast
1:15 PM 37.4 °F 32.1 °F 21.2 °F 52% 30.34 in 10.0 mi WNW 6.9 mph - N/A   Overcast
1:35 PM 39.2 °F 32.0 °F 24.8 °F 56% 30.33 in 10.0 mi NNW 11.5 mph 16.1 mph N/A   Mostly Cloudy
1:55 PM 39.2 °F 32.5 °F 24.8 °F 56% 30.33 in 10.0 mi NNW 10.4 mph 17.3 mph N/A   Mostly Cloudy
2:15 PM 39.2 °F 31.6 °F 24.8 °F 56% 30.33 in 10.0 mi WNW 12.7 mph 19.6 mph N/A   Mostly Cloudy
2:35 PM 39.2 °F 32.0 °F 24.8 °F 56% 30.32 in 10.0 mi NW 11.5 mph 17.3 mph N/A   Partly Cloudy
2:55 PM 39.2 °F 31.6 °F 21.2 °F 49% 30.32 in 10.0 mi NW 12.7 mph 19.6 mph N/A   Partly Cloudy
3:15 PM 41.0 °F 34.7 °F 23.0 °F 49% 30.31 in 10.0 mi WNW 10.4 mph - N/A   Clear
3:35 PM 41.0 °F 33.9 °F 23.0 °F 49% 30.31 in 10.0 mi NNW 12.7 mph 18.4 mph N/A   Clear
3:55 PM 41.0 °F 33.9 °F 21.2 °F 45% 30.31 in 10.0 mi NNW 12.7 mph 18.4 mph N/A   Clear
4:15 PM 41.0 °F 34.3 °F 21.2 °F 45% 30.31 in 10.0 mi NW 11.5 mph - N/A   Clear
4:35 PM 41.0 °F 34.3 °F 21.2 °F 45% 30.31 in 10.0 mi WNW 11.5 mph 16.1 mph N/A   Partly Cloudy
4:55 PM 41.0 °F 34.7 °F 21.2 °F 45% 30.31 in 10.0 mi NW 10.4 mph 16.1 mph N/A   Clear
5:15 PM 41.0 °F 35.8 °F 21.2 °F 45% 30.31 in 10.0 mi NW 8.1 mph 17.3 mph N/A   Clear
5:35 PM 41.0 °F 34.7 °F 21.2 °F 45% 30.31 in 10.0 mi NW 10.4 mph 17.3 mph N/A   Clear
5:55 PM 39.2 °F 32.5 °F 21.2 °F 49% 30.31 in 10.0 mi West 10.4 mph - N/A   Clear
6:15 PM 39.2 °F 32.5 °F 19.4 °F 45% 30.32 in 10.0 mi NW 10.4 mph 16.1 mph N/A   Clear
6:35 PM 39.2 °F 33.6 °F 19.4 °F 45% 30.32 in 10.0 mi NW 8.1 mph - N/A   Clear
6:55 PM 37.4 °F 30.8 °F 19.4 °F 48% 30.33 in 10.0 mi NW 9.2 mph - N/A   Clear
7:15 PM 37.4 °F 32.1 °F 19.4 °F 48% 30.33 in 10.0 mi NW 6.9 mph - N/A   Clear
7:35 PM 35.6 °F 30.7 °F 19.4 °F 52% 30.33 in 10.0 mi NNW 5.8 mph - N/A   Clear
7:55 PM 35.6 °F 32.8 °F 19.4 °F 52% 30.33 in 10.0 mi NW 3.5 mph - N/A   Clear
8:15 PM 33.8 °F 30.8 °F 19.4 °F 56% 30.34 in 10.0 mi NNW 3.5 mph - N/A   Clear
8:35 PM 35.6 °F - 19.4 °F 52% 30.33 in 10.0 mi Calm Calm - N/A   Clear
8:55 PM 33.8 °F 30.8 °F 19.4 °F 56% 30.34 in 10.0 mi NNW 3.5 mph - N/A   Clear
9:15 PM 33.8 °F - 19.4 °F 56% 30.34 in 10.0 mi Calm Calm - N/A   Clear
9:35 PM 33.8 °F - 19.4 °F 56% 30.34 in 10.0 mi Calm Calm - N/A   Clear
9:55 PM 32.0 °F - 21.2 °F 64% 30.34 in 10.0 mi Calm Calm - N/A   Clear
10:15 PM 28.4 °F - 21.2 °F 74% 30.35 in 10.0 mi Calm Calm - N/A   Clear
10:35 PM 28.4 °F - 21.2 °F 74% 30.35 in 10.0 mi Calm Calm - N/A   Clear
10:55 PM 28.4 °F - 21.2 °F 74% 30.35 in 10.0 mi Calm Calm - N/A   Clear
11:15 PM 26.6 °F - 21.2 °F 80% 30.35 in 10.0 mi Calm Calm - N/A   Clear
11:35 PM 26.6 °F - 21.2 °F 80% 30.35 in 10.0 mi Calm Calm - N/A   Clear
11:55 PM 26.6 °F - 21.2 °F 80% 30.35 in 10.0 mi Calm Calm - N/A   Clear